This is the latest recevied weather packets stored in our database for station/object WC4PEM-14. If no packets are shown the sender has not sent any weather packets the latest 10 day(s).
| Time | Temp. | Humidity | Pressure | Rain* | Wind** | Luminosity | Snow |
|---|---|---|---|---|---|---|---|
| 1777659198 | 33.89° C | 44% | 1010.5 hPa | 0 mm | - | - | - |
| 1777658994 | 33.33° C | 45% | 1010.6 hPa | 0 mm | - | - | - |
| 1777658898 | 33.33° C | 45% | 1010.6 hPa | 0 mm | - | - | - |
| 1777658713 | 32.78° C | 45% | 1010.8 hPa | 0 mm | - | - | - |
| 1777658598 | 32.78° C | 45% | 1010.8 hPa | 0 mm | - | - | - |
| 1777658338 | 32.22° C | 49% | 1010.8 hPa | 0 mm | - | - | - |
| 1777658298 | 32.22° C | 49% | 1010.8 hPa | 0 mm | - | - | - |
| 1777658034 | 32.22° C | 49% | 1010.9 hPa | 0 mm | - | - | - |
| 1777657998 | 32.22° C | 49% | 1010.9 hPa | 0 mm | - | - | - |
| 1777657802 | 32.22° C | 48% | 1011 hPa | 0 mm | - | - | - |
| 1777657698 | 32.22° C | 48% | 1011 hPa | 0 mm | - | - | - |
| 1777657515 | 32.78° C | 46% | 1011 hPa | 0 mm | - | - | - |
| 1777657484 | 32.78° C | 46% | 1011 hPa | 0 mm | - | - | - |
| 1777657398 | 32.78° C | 46% | 1011 hPa | 0 mm | - | - | - |
| 1777657306 | 32.78° C | 45% | 1011.1 hPa | 0 mm | - | - | - |
| 1777657098 | 32.78° C | 45% | 1011.1 hPa | 0 mm | - | - | - |
| 1777656950 | 32.22° C | 48% | 1011 hPa | 0 mm | - | - | - |
| 1777656798 | 32.22° C | 48% | 1011 hPa | 0 mm | - | - | - |
| 1777656694 | 31.67° C | 50% | 1011.3 hPa | 0 mm | - | - | - |
| 1777656498 | 31.67° C | 50% | 1011.3 hPa | 0 mm | - | - | - |
| 1777656496 | 31.67° C | 50% | 1011.2 hPa | 0 mm | - | - | - |
| 1777656198 | 31.67° C | 50% | 1011.2 hPa | 0 mm | - | - | - |
| 1777655904 | 31.67° C | 51% | 1011.3 hPa | 0 mm | - | - | - |
| 1777655898 | 32.22° C | 52% | 1011.1 hPa | 0 mm | - | - | - |
| 1777655601 | 31.67° C | 51% | 1011.3 hPa | 0 mm | - | - | - |
* Rain latest hour (hover to see other rain measurements)
** Current wind speed in m/s (hover to see current wind gust speed)